Home   Weather   Baar   Past weeks

Flag for Switzerland Past Weather in Baar, Zug, Switzerland — Yesterday and Last 2 Weeks

Now
58 °F

Cool.


Feels Like: 58 °F
Forecast: 51 / 72 °F
Wind: 2 mph from Northeast

Location: Zuerich-Fluntern

Current Time: Oct 1, 2016 at 12:01:15 AM

Latest Report: Sep 30, 2016 at 11:00 PM


Visibility: N/A

Pressure: 29.98 "Hg

Humidity: 78%

Dew Point: 51 °F

Location of BaarLocation

Past Weather in Baar — Graph

°F

Baar Temperature Yesterday

Maximum temperature yesterday: 73 °F (at 4:00 PM)
Minimum temperature yesterday: 58 °F (at 8:00 AM)
Average temperature yesterday: 65 °F

High & Low Weather Summary for the Past Weeks

 TemperatureHumidityPressure
High73 °F (Sep 29, 5:00 PM)100% (Sep 20, 3:00 AM)30.46 "Hg (Sep 20, 3:00 AM)
Low46 °F (Sep 22, 5:00 AM)35% (Sep 30, 4:00 PM)29.92 "Hg (Sep 18, 2:00 PM)
Average58 °F80%30.14 "Hg
* Reported Sep 15 10:00 PM — Sep 30 10:00 PM, Baar, Weather by CustomWeather, © 2016

Note: Actual official high and low records may vary slightly from our data, if they occured in-between our weather recording intervals... More about our weather records

Advertising

Baar Weather History for the Previous 24 Hours

Scroll right to see more
 ConditionsComfort  
Time TempWeatherWind HumidityBarometerVisibility
10:00 PM
Fri, Sep 30
59 °FCool.1 mph77%29.99 "HgN/A
8:00 PM62 °FPassing clouds.5 mph64%29.98 "HgN/A
7:00 PM65 °FMild.2 mph59%29.96 "HgN/A
6:00 PM70 °FMild.6 mph43%29.95 "HgN/A
5:00 PM72 °FMild.9 mph38%29.95 "HgN/A
4:00 PM73 °FMild.9 mph35%29.96 "HgN/A
3:00 PM71 °FMild.9 mph38%29.98 "HgN/A
2:00 PM72 °FMild.9 mph39%29.99 "HgN/A
1:00 PM70 °FMild.7 mph45%30.01 "HgN/A
12:00 PM68 °FMild.7 mph51%30.03 "HgN/A
11:00 AM65 °FMild.10 mph53%30.06 "HgN/A
10:00 AM62 °FCool.8 mph61%30.07 "HgN/A
9:00 AM59 °FCool.5 mph68%30.08 "HgN/A
8:00 AM58 °FCool.3 mph71%30.08 "HgN/A
7:00 AM60 °FCool.7 mph60%30.07 "HgN/A
6:00 AM60 °FRefreshingly cool.5 mph60%30.07 "HgN/A
5:00 AM61 °FRefreshingly cool.6 mph59%30.07 "HgN/A
4:00 AM62 °FRefreshingly cool.8 mph56%30.07 "HgN/A
3:00 AM63 °FMild.8 mph56%30.08 "HgN/A
2:00 AM63 °FMild.9 mph56%30.09 "HgN/A
1:00 AM61 °FCool.5 mph70%30.11 "HgN/A
12:00 AM64 °FMild.7 mph57%30.11 "HgN/A
Weather by CustomWeather, © 2016

See weather overviewHow to use our weather pages